Location: Darmstadt
(49.8706°N, 8.6494°E)
Time: 06:56:30
(UTC+01:00)

Cosmos 2151 - Pass Details

Date: 31 October 2020
Orbit: 581 x 601 km, 82.5° (Epoch: 03 December)

Event Time Altitude Azimuth Distance (km) Brightness Sun altitude
Rises 18:48:32 0° 354° (N) 2,820 6.5 -17.3°
Reaches altitude 10° 18:50:48 10° 359° (N) 1,913 5.6 -17.7°
Maximum altitude 18:54:54 50° 76° (ENE) 751 3.0 -18.3°
Enters shadow 18:56:13 36° 126° (SE) 935 3.6 -18.6°
